Vertical_Velocity
-0 -1 -2 -8 -5 -5 -3 0 -2 1 2 1 -2 -1 -2 -3 1 -2 -4 -3 -2 16 -3 -7 -6 -4 5 -1 -1 -2 3 7 -1 -4 2 4 -2 -3 -3 5 6 5 -1 0
6 0 -2 -0 1 1 2 -1 -2 3 1 1 1 -3 -2 0 -6 -6 -3 -5 -8 -1 5 -3 -5 -0 -4 1 0 2 -2 0 3 1 -2 4 1 -1 0 1 3 -0 -3 -1
-1 4 -0 -1 -0 3 1 -3 -0 -8 2 1 2 1 2 -2 3 7 -2 -1 3 -11 17 0 -3 -4 -1 -2 -1 2 4 6 5 6 3 1 1 5 2 3 1 -3 -3 -1
1 -1 1 1 -0 -2 -1 -2 -2 -1 -2 -3 1 -5 2 -0 0 1 0 -1 -2 9 -10 17 1 -4 -4 -3 -3 -2 -4 1 -1 -3 1 0 7 8 -1 -4 -1 -2 -1 0
11 -1 1 1 -1 -3 3 -2 -2 -2 -0 -4 3 2 -10 2 3 -1 -2 -3 -6 -11 3 18 -5 -3 0 -5 -4 -2 1 -1 1 3 4 -1 -1 -3 1 0 1 -2 1 -1
3 0 0 7 2 -0 -3 -1 -0 -1 -0 -2 -3 -2 -7 -1 -4 0 1 -2 -5 -5 -1 13 5 3 -7 -6 -3 -1 2 -1 0 3 1 1 0 2 1 1 1 -0 -2 1
-2 -1 -3 3 -0 -3 1 -1 -1 -4 -4 -3 0 3 -10 2 0 -1 0 1 8 -1 -7 3 0 3 5 5 -6 -3 -0 1 0 1 0 -0 1 1 -1 -1 -1 -1 -2 -3
-1 -1 -1 1 3 2 -2 -3 -5 -2 -2 -4 -0 -2 -10 2 1 -1 -3 -3 -0 2 10 -4 4 1 -4 1 7 -1 -2 0 2 -1 -2 1 -1 0 2 -0 1 0 1 -0
-1 2 -2 0 0 4 -9 2 2 0 -1 -5 -3 -3 -3 2 1 2 1 -1 -2 -5 -1 12 13 -4 -3 -3 -1 6 -3 0 -1 -0 1 -1 -2 -4 2 0 -3 0 -1 -1
2 -3 0 3 3 -0 5 1 -1 -4 -3 -0 -0 -1 -3 3 2 1 1 1 2 -1 1 -3 6 3 -0 -2 -7 2 -2 1 2 -1 -1 -0 -1 3 -5 2 0 -1 -2 -1
1 -7 4 1 -2 -0 2 -1 0 -2 -3 0 0 -4 -1 0 0 0 2 0 -1 -1 -1 -1 -4 10 1 -1 5 -4 2 -2 -3 1 -3 7 4 -7 4 -1 -1 -2 -3 -1
2 -2 -0 -0 -1 -0 1 -1 0 -5 -3 -1 -1 -9 -0 -0 -0 -1 0 -1 -1 -1 1 1 -1 2 -0 2 1 11 -14 3 1 -4 -0 1 4 2 -2 -1 -1 1 -2 -0
3 1 -1 -0 1 1 1 -1 0 -0 -3 -1 -2 -8 1 1 1 -2 0 -1 -1 -4 -2 0 2 2 -1 -1 1 1 -1 -4 4 6 -2 -5 -8 0 -0 0 -2 -3 -1 -0
-0 0 -1 -3 -2 -2 2 1 -0 -3 -1 -3 -5 -3 -1 -0 -1 1 -4 7 1 2 -3 -1 -0 0 0 -0 1 -0 1 3 4 -1 -0 -2 1 0 -2 1 -3 -2 -2 -1
2 -1 -2 -1 0 -1 0 -0 -0 0 -5 -3 -6 0 -5 -2 -0 -1 3 4 -6 1 0 -3 -1 -1 -1 -1 1 1 4 -0 1 -0 -0 -1 -2 -1 -0 -2 -3 -0 0 -2
0 -3 -1 -2 0 0 0 -0 0 -0 -1 2 2 -7 -0 -6 -3 -3 -2 2 5 4 1 2 -4 -1 1 1 2 3 1 0 1 -3 -3 -2 2 0 -3 -4 -4 0 -0 1
-0 -1 -1 -1 0 -0 -2 -8 -2 -1 0 -2 2 -16 -1 -2 -1 1 -1 0 1 -0 -0 7 -2 -4 0 -2 -2 -3 -2 0 1 -0 1 0 -1 -1 -0 -1 0 -1 -1 -1
0 0 -0 -1 -1 -1 -16 0 0 0 -1 -0 2 -1 -1 1 1 -1 -2 -0 -3 -3 5 -4 13 0 -2 3 -0 0 -2 1 2 1 -1 1 0 -2 -3 -0 -1 -1 -1 -0
1 0 -1 -2 -0 -10 -5 4 0 -0 -7 -1 -0 -0 0 0 -4 -4 1 2 -1 -3 -2 4 0 14 6 2 0 0 -1 -1 1 0 -1 -1 -1 -2 -1 -0 -1 -2 0 -3
-0 1 -1 -1 0 0 1 2 -1 0 -3 1 -1 0 0 -1 -1 -3 -3 -3 -5 3 3 -3 -5 -3 11 5 0 -2 0 0 -0 0 -0 -1 -1 -1 -3 -2 0 1 -0 -2
0 1 -1 -1 -0 -7 -1 0 -2 -3 -8 0 -1 -0 -1 -0 -1 3 -2 -2 -2 -3 1 -1 1 4 10 4 -0 -1 1 1 3 1 0 -1 0 -1 -0 -1 -0 -1 -3 2
-4 -0 -1 2 2 -6 -1 -2 -4 -4 -0 -1 0 2 1 -1 -1 -0 -2 -0 -2 -1 -1 3 2 2 2 2 0 0 -1 1 1 1 0 -1 0 0 1 0 1 -0 1 1
-6 -1 -0 0 -2 -1 -4 -3 -0 3 2 -4 1 -1 -0 -1 0 1 -2 -1 -0 -1 1 2 1 1 -1 -0 1 0 1 2 3 0 1 1 -1 1 2 1 0 -1 1 1
0 3 -1 -6 -5 -0 1 1 4 3 4 1 3 1 2 -1 -0 -0 -1 -0 -1 -2 -2 -1 0 1 -0 -1 -3 0 3 2 1 -0 -0 0 1 -0 2 -1 -1 -1 1 -0
-1 -0 0 -4 -5 -5 -1 3 4 4 1 -0 0 -1 -1 3 -0 0 1 -1 -0 1 1 -0 -1 -1 1 2 2 3 1 -0 -1 -0 -1 -0 1 -1 -1 -2 -2 -1 -2 -1
0 3 2 -1 -0 6 -5 -2 1 -3 -4 -2 -0 0 -2 0 3 3 -2 -1 -1 -1 0 0 5 1 1 1 3 0 0 -0 -1 -1 -0 -2 -0 -1 -2 -3 -1 -1 -0 -2
Height
1477 1480 1475 1467 1459 1462 1465 1469 1475 1475 1480 1490 1492 1496 1497 1497 1497 1499 1502 1504 1506 1509 1511 1515 1518 1519 1521 1525 1527 1530 1532 1534 1537 1539 1542 1546 1548 1551 1553 1557 1558 1559 1561 1561
1475 1472 1470 1465 1463 1461 1462 1470 1480 1480 1482 1487 1493 1495 1492 1489 1493 1496 1498 1502 1505 1506 1508 1511 1513 1516 1518 1521 1525 1527 1531 1531 1535 1538 1541 1543 1546 1548 1550 1552 1554 1555 1557 1557
1468 1470 1470 1469 1469 1470 1466 1470 1485 1485 1488 1486 1486 1492 1489 1486 1488 1492 1494 1496 1500 1502 1507 1507 1509 1512 1515 1517 1520 1524 1527 1529 1533 1536 1537 1539 1542 1545 1546 1548 1549 1551 1552 1553
1472 1475 1472 1472 1468 1461 1470 1462 1469 1476 1487 1497 1487 1505 1483 1480 1485 1486 1489 1492 1494 1497 1501 1504 1504 1508 1511 1514 1516 1520 1522 1524 1528 1531 1535 1539 1540 1542 1543 1544 1545 1547 1548 1549
1479 1471 1467 1468 1468 1465 1470 1462 1469 1477 1486 1488 1495 1505 1483 1474 1483 1481 1483 1487 1490 1493 1496 1498 1500 1504 1508 1509 1513 1516 1519 1522 1525 1528 1530 1533 1535 1537 1539 1541 1542 1542 1544 1545
1479 1478 1475 1473 1470 1471 1476 1475 1475 1478 1485 1512 1490 1495 1486 1478 1474 1473 1476 1481 1486 1489 1491 1495 1495 1498 1501 1505 1510 1513 1515 1518 1521 1524 1526 1529 1531 1533 1535 1537 1538 1539 1539 1540
1483 1484 1481 1481 1476 1473 1471 1478 1503 1512 1519 1507 1479 1491 1485 1470 1470 1471 1475 1478 1480 1482 1486 1490 1491 1494 1496 1501 1504 1509 1512 1514 1517 1520 1522 1525 1527 1529 1531 1532 1534 1534 1534 1534
1486 1492 1489 1485 1483 1481 1479 1478 1499 1501 1509 1502 1481 1491 1479 1467 1470 1472 1475 1477 1478 1479 1481 1485 1487 1490 1494 1498 1501 1502 1507 1511 1513 1516 1519 1522 1524 1526 1527 1528 1529 1530 1530 1530
1483 1491 1491 1488 1488 1487 1484 1490 1485 1491 1479 1502 1492 1479 1469 1466 1469 1472 1474 1477 1477 1478 1480 1482 1484 1487 1490 1494 1498 1499 1502 1507 1509 1512 1515 1518 1520 1522 1523 1524 1525 1525 1526 1526
1476 1493 1494 1491 1490 1487 1486 1484 1495 1499 1506 1493 1489 1478 1478 1474 1474 1474 1475 1476 1477 1478 1479 1480 1482 1484 1485 1490 1495 1497 1499 1503 1506 1509 1512 1514 1516 1517 1519 1520 1520 1521 1521 1522
1474 1481 1496 1492 1494 1490 1491 1492 1486 1486 1495 1503 1501 1489 1464 1472 1475 1478 1477 1477 1478 1478 1478 1479 1480 1483 1483 1486 1489 1493 1496 1500 1503 1506 1509 1511 1511 1514 1516 1516 1517 1517 1518 1518
1478 1483 1495 1492 1489 1488 1488 1489 1485 1506 1501 1501 1500 1497 1468 1471 1473 1475 1476 1477 1477 1477 1478 1478 1478 1480 1482 1484 1486 1485 1493 1498 1500 1504 1507 1508 1509 1510 1512 1512 1513 1513 1513 1513
1480 1486 1495 1496 1491 1488 1491 1485 1483 1487 1497 1502 1511 1494 1470 1471 1473 1475 1476 1475 1475 1476 1476 1477 1477 1478 1479 1481 1482 1484 1486 1491 1494 1496 1501 1506 1507 1507 1507 1508 1508 1509 1508 1508
1482 1479 1483 1496 1486 1483 1489 1484 1483 1492 1509 1496 1495 1485 1474 1472 1472 1472 1473 1475 1475 1474 1475 1476 1477 1477 1477 1478 1480 1482 1485 1488 1490 1493 1496 1500 1502 1502 1503 1503 1504 1504 1504 1504
1482 1485 1488 1483 1480 1484 1483 1481 1482 1492 1487 1500 1484 1478 1472 1470 1470 1470 1470 1471 1471 1473 1473 1474 1475 1476 1476 1477 1479 1481 1483 1485 1488 1491 1493 1496 1498 1499 1499 1500 1501 1501 1500 1499
1481 1491 1489 1492 1479 1481 1486 1482 1480 1479 1477 1481 1479 1477 1469 1467 1466 1465 1466 1467 1468 1468 1470 1470 1471 1473 1474 1475 1476 1478 1480 1483 1486 1488 1491 1493 1494 1494 1495 1495 1496 1496 1496 1495
1479 1483 1489 1491 1481 1482 1488 1472 1470 1471 1470 1471 1475 1468 1465 1466 1465 1465 1464 1464 1464 1464 1465 1466 1466 1467 1470 1471 1473 1475 1477 1480 1482 1485 1487 1488 1489 1490 1491 1491 1491 1491 1491 1491
1478 1480 1484 1496 1485 1501 1468 1463 1464 1465 1464 1461 1462 1462 1461 1461 1461 1460 1461 1461 1460 1461 1461 1461 1461 1462 1465 1468 1470 1472 1475 1477 1479 1481 1483 1484 1485 1486 1487 1488 1488 1488 1487 1487
1479 1482 1485 1493 1492 1477 1461 1466 1466 1466 1464 1456 1458 1459 1460 1461 1461 1460 1458 1457 1456 1455 1456 1457 1458 1459 1460 1462 1465 1468 1470 1473 1476 1477 1479 1480 1482 1483 1484 1484 1484 1484 1482 1483
1483 1485 1491 1492 1493 1483 1467 1468 1468 1468 1474 1460 1461 1461 1462 1462 1465 1460 1457 1456 1453 1452 1451 1452 1453 1454 1455 1457 1460 1464 1466 1469 1471 1473 1475 1476 1477 1478 1478 1479 1480 1479 1479 1480
1488 1486 1493 1492 1490 1481 1464 1466 1468 1477 1476 1464 1463 1462 1461 1462 1461 1458 1455 1453 1451 1449 1448 1449 1451 1451 1452 1454 1458 1461 1464 1466 1469 1470 1472 1473 1474 1475 1475 1475 1475 1475 1476 1478
1483 1485 1484 1485 1488 1487 1467 1469 1473 1469 1465 1465 1464 1463 1460 1459 1457 1456 1454 1452 1450 1448 1447 1447 1448 1449 1451 1453 1456 1459 1462 1465 1466 1468 1469 1470 1471 1471 1471 1471 1472 1472 1473 1473
1484 1476 1479 1473 1470 1466 1465 1464 1464 1463 1462 1462 1461 1460 1459 1457 1456 1454 1453 1452 1450 1449 1449 1448 1448 1449 1451 1453 1455 1458 1461 1463 1464 1465 1466 1466 1467 1467 1467 1467 1468 1468 1469 1469
1473 1471 1476 1474 1465 1463 1462 1462 1460 1459 1459 1458 1457 1456 1455 1454 1454 1453 1452 1452 1451 1450 1450 1450 1450 1450 1451 1453 1455 1457 1459 1460 1461 1462 1463 1463 1463 1463 1463 1463 1464 1464 1465 1466
1479 1476 1474 1471 1466 1463 1463 1462 1460 1456 1455 1454 1453 1452 1451 1451 1450 1450 1450 1450 1450 1450 1451 1451 1451 1451 1452 1453 1454 1455 1456 1456 1457 1458 1459 1459 1459 1459 1460 1460 1460 1461 1462 1464
1476 1478 1477 1476 1471 1469 1467 1464 1461 1456 1453 1451 1449 1447 1447 1447 1447 1447 1447 1448 1448 1449 1449 1450 1450 1450 1451 1451 1451 1452 1452 1453 1453 1454 1454 1455 1455 1455 1456 1456 1457 1458 1459 1460